Back to catalog

STARLINK-35832

AliveCommunicationsVLEO
NORAD 66495·PAYLOAD·🇺🇸 United States

Launched Nov 15, 2025 from Cape Canaveral Space Force Station

Loading…

Next Passes (next 24 hours)

TLE

FreshSource: CelesTrak SupGP

Epoch: Sep 14, 2026, 14:23 UTC

1 66495C 25263L   26257.59979167 -.00018904  00000+0 -68500-3 0  2575
2 66495  43.0038   3.7406 0001398 273.9589   3.9075 15.27573871    15

Track STARLINK-35832 in real time with AllMySat

Download on the App Store